HEMM

Details ICAO HEMM (MUH)
Name MERSA MATRUH
Region Egypt
Timezone Africa/Cairo (UTC+2.0)
Plans Departing 19
Arriving 28
Stats Elevation 94 ft / 29 m (AMSL)
Location 31.327068° 27.225097°
Runways 2
Magnetic Variation 4.273° E
Sunrise 2018-05-26 03:10:56 UTC / 2018-05-26 05:10:56 Local
Sunset 2018-05-26 17:08:13 UTC / 2018-05-26 19:08:13 Local
Advertisement - Login to hide

Runways

ID Width Length Bearing (true) Bearing (mag) Surface Threshold Offset Overrun Length
06 148 ft / 45 m 9,826 ft / 2,995 m 59.88° 55.61° Asphalt 160 ft / 49 m 0 ft / 0 m
15 148 ft / 45 m 9,871 ft / 3,009 m 149.80° 145.53° Asphalt 0 ft / 0 m 80 ft / 24 m
24 148 ft / 45 m 9,826 ft / 2,995 m 239.90° 235.63° Asphalt 160 ft / 49 m 0 ft / 0 m
33 148 ft / 45 m 9,871 ft / 3,009 m 329.81° 325.54° Asphalt 0 ft / 0 m 0 ft / 0 m

Map

Weather


0- 5 10 15 20 25 30 35+ Temperature / ° C

Clouds and Precipitation
Forecast for 2018-05-26 06:00 UTC. Updated 5 hours ago

Ground ~20,000 ft ~40,000 ft Winds

METAR

HEMM 261000Z 03010KT 9999 SCT020 25/18 Q1012 NOSIG

TAF

Not found

Frequencies

Tower 118.10 MHz MATRUH TWR
Tower 121.90 MHz MATRUH TWR
Warning: Do not use this data for real-world aviation or navigation. No guarantee of current accuracy is given.